Location: Waning Moon II Observatory
(30.3730°N, 89.7620°W)
Time: 16:18:47
(UTC-05:00)

Meteor 1-21 - Visible Passes

Search period start: 27 May 2018 00:00
Search period end: 06 June 2018 00:00
Orbit: 842 x 891 km, 81.2° (Epoch: 27 May)

Date Brightness Start Highest point End Pass type
(mag) Time Alt. Az. Time Alt. Az. Time Alt. Az.
27 May 6.8 00:59:32 11° WNW 00:59:32 11° WNW 01:00:15 10° NW visible
27 May 5.2 23:09:35 40° NNE 23:09:35 40° NNE 23:13:11 10° NNE visible
28 May 6.8 00:51:53 11° WNW 00:51:53 11° WNW 00:52:47 10° NW visible
28 May 4.9 23:01:55 45° NNE 23:01:55 45° NNE 23:05:49 10° NNE visible
29 May 6.8 00:44:13 11° WNW 00:44:13 11° WNW 00:45:20 10° NW visible
29 May 4.7 22:54:13 50° NNE 22:54:13 50° NNE 22:58:26 10° NNE visible
30 May 6.8 00:36:31 11° WNW 00:36:35 11° WNW 00:37:52 10° WNW visible
30 May 4.5 22:46:29 57° NE 22:46:29 57° NE 22:51:05 10° NNE visible
31 May 6.8 00:28:47 11° WNW 00:29:14 11° WNW 00:30:25 10° WNW visible
31 May 4.3 22:38:43 65° NE 22:38:43 65° NE 22:43:43 10° NNE visible
01 Jun 6.8 00:21:01 10° W 00:21:52 10° WNW 00:22:55 10° WNW visible
01 Jun 4.1 22:30:54 71° E 22:30:54 71° E 22:36:21 10° NNE visible
02 Jun 6.8 00:13:33 10° W 00:14:29 10° WNW 00:15:27 10° WNW visible
02 Jun 4.0 22:23:02 70° ESE 22:23:21 73° E 22:28:58 10° NNE visible
03 Jun 6.8 00:06:20 10° WNW 00:07:08 10° WNW 00:07:56 10° WNW visible
03 Jun 4.1 22:15:08 62° SSE 22:15:59 73° E 22:21:37 10° NNE visible
03 Jun 6.9 23:59:08 10° WNW 23:59:46 10° WNW 00:00:23 10° WNW visible
04 Jun 4.1 22:07:10 50° SSE 22:08:36 74° E 22:14:14 10° NNE visible
04 Jun 6.9 23:52:00 10° WNW 23:52:24 10° WNW 23:52:47 10° WNW visible
05 Jun 4.1 21:59:08 39° S 22:01:14 75° E 22:06:53 10° NNE visible
